Vorticity
8 8 9 9 10 10 11 11 11 12 12 11 11 10 10 10 10 9 9 9 9 9 9 9 9 9 9 9 9 9 8 8 7 7 7 7 7 7 7 7 7 8 10 10 11 10 10 9 8 7 6 7 8 8 9 11 12 13 14 14 12 11 10 9 8 7 6 4 3
10 11 11 11 11 11 11 11 11 11 10 10 10 9 9 9 8 8 8 9 9 9 8 8 9 9 9 9 10 10 9 8 8 7 7 7 6 6 5 4 5 6 7 9 9 9 9 8 7 7 7 8 10 11 11 12 14 14 14 13 11 10 9 8 8 6 5 3 2
11 11 11 11 10 10 10 9 9 8 8 8 8 7 7 7 7 7 8 8 8 8 8 8 8 9 9 10 11 11 12 11 10 10 9 8 8 7 6 5 5 5 6 8 9 9 9 8 9 9 10 11 13 14 14 14 15 14 13 12 11 9 9 8 7 5 3 1 2
10 10 9 9 8 8 7 6 6 6 6 6 7 7 7 7 8 8 8 8 8 8 8 8 8 8 10 12 13 14 15 15 14 13 12 11 10 10 9 8 7 7 7 9 9 10 10 10 11 12 14 16 17 17 17 17 15 12 11 11 10 9 8 7 5 3 2 1 2
8 8 7 7 6 6 6 6 6 7 7 8 8 9 9 9 9 10 9 9 9 8 8 7 7 7 9 11 14 16 17 18 18 17 16 15 14 13 12 11 10 10 10 11 11 12 12 13 15 17 18 19 19 18 17 16 13 11 10 10 9 8 7 6 4 2 2 2 2
7 7 7 7 7 7 8 8 9 9 10 10 11 11 11 11 11 11 11 10 9 9 8 7 6 5 6 7 9 11 14 16 18 19 20 20 18 17 16 15 14 14 13 14 14 15 16 18 19 20 20 19 17 16 14 13 11 10 10 9 7 6 5 4 3 3 3 2 2
8 8 8 9 9 10 10 11 11 11 12 12 12 12 12 12 12 12 12 11 11 10 9 8 6 5 3 2 1 1 3 5 10 15 20 24 24 22 20 19 18 17 17 17 18 19 20 21 21 20 18 16 14 12 11 10 10 9 9 7 6 5 4 4 4 3 3 2 2
10 10 10 10 11 11 11 11 12 12 12 12 12 13 13 13 14 14 14 15 15 14 13 11 9 6 4 1 -1 -4 -5 -5 -1 4 12 20 25 26 24 22 20 19 19 19 20 21 21 20 19 17 16 13 11 11 10 10 9 8 7 6 5 5 4 4 5 4 3 3 4
11 11 11 11 11 11 11 11 11 11 12 12 12 13 14 16 16 17 17 17 17 17 16 15 13 11 9 6 3 -1 -4 -6 -6 -4 2 10 18 23 24 23 21 20 19 19 19 19 18 17 15 14 12 11 10 10 9 8 7 6 6 5 6 6 6 6 5 4 3 4 6
11 11 11 11 11 11 11 11 12 12 13 13 14 15 16 17 18 18 18 17 17 17 17 17 17 17 16 15 12 8 4 -0 -3 -4 -3 2 10 16 19 20 19 19 18 17 16 15 14 13 12 11 10 10 9 9 8 7 6 6 6 6 6 7 7 7 6 5 5 6 9
11 11 11 11 10 11 11 12 12 13 14 14 15 15 16 16 16 16 17 17 17 17 16 17 19 20 21 22 21 18 14 9 4 1 -1 -0 5 10 14 15 16 16 15 15 14 12 11 10 10 10 10 9 8 8 7 6 6 6 7 7 7 8 8 8 6 6 7 10 12
11 11 10 10 11 11 12 13 14 14 14 15 15 15 14 14 14 15 16 17 17 17 18 19 20 21 22 24 25 24 21 17 12 8 3 1 4 7 11 12 12 13 13 13 12 11 10 9 9 9 9 9 8 7 6 6 6 6 7 8 8 9 9 9 8 9 11 13 14
10 10 10 11 12 13 14 14 15 15 15 14 14 13 13 12 13 15 16 17 18 19 19 21 23 24 25 26 27 27 25 22 18 13 9 4 4 6 9 11 11 11 12 13 12 11 10 10 10 10 9 9 7 6 5 5 5 5 7 8 9 10 10 10 11 12 14 14 14
10 11 11 12 13 14 15 15 15 15 15 14 13 12 12 12 12 14 16 18 19 20 21 22 24 26 27 28 29 28 27 25 21 18 13 7 4 5 8 11 12 13 14 14 13 12 11 11 10 9 8 7 5 4 3 3 3 5 6 9 11 12 12 12 13 14 14 14 12
11 11 12 13 14 15 16 16 16 15 13 12 11 11 11 11 12 14 16 17 19 20 21 22 23 25 27 29 30 30 29 27 24 21 17 11 6 4 5 9 11 13 14 15 15 13 12 10 9 8 6 4 3 2 1 2 3 5 8 11 13 14 14 14 14 14 14 13 11
12 13 13 14 15 16 16 16 15 14 12 11 11 10 10 11 12 13 14 16 17 19 20 21 22 23 25 27 29 30 30 29 27 24 20 15 8 4 2 4 7 10 12 13 12 11 9 7 5 4 3 2 2 1 2 2 4 7 10 14 15 15 15 14 14 13 12 12 11
13 13 14 15 16 16 16 15 14 13 12 12 11 11 11 11 11 12 12 14 15 16 17 19 20 22 23 24 26 28 29 29 28 26 23 18 11 5 0 -1 2 4 6 7 7 5 3 0 -1 -1 0 2 3 3 4 5 7 10 13 16 16 15 15 14 13 12 12 11 11
13 14 15 15 16 16 15 14 13 12 12 12 12 12 11 11 11 10 11 12 12 13 15 17 18 20 21 23 24 26 28 29 28 27 24 20 14 8 2 -1 -2 -1 0 1 0 -1 -3 -5 -5 -2 1 4 6 7 8 9 12 14 16 16 15 14 13 12 12 11 11 10 10
13 14 15 16 16 16 14 12 12 12 12 12 12 12 11 11 10 10 9 9 10 11 12 14 15 17 19 21 23 25 27 28 28 27 25 22 18 12 7 2 -0 -1 -1 -1 -2 -3 -4 -4 -2 2 6 10 11 12 13 13 15 16 16 14 13 12 11 11 10 10 9 9 9
14 15 16 17 17 15 13 10 10 11 12 12 11 11 10 10 9 8 8 8 8 9 10 11 13 14 16 19 21 23 25 27 28 28 26 24 21 17 12 8 6 4 3 2 2 2 2 3 6 10 13 15 15 15 15 15 15 15 13 12 11 10 9 9 9 8 8 8 8
15 16 18 19 18 15 12 10 9 10 10 10 9 9 8 8 7 7 7 7 7 8 8 9 10 12 14 16 19 21 24 27 29 29 29 27 25 22 19 16 14 12 11 10 10 10 11 13 15 17 18 18 17 16 16 15 14 12 11 9 9 8 8 7 7 8 8 8 8
16 18 19 20 18 16 13 10 9 9 9 9 8 8 7 6 6 6 6 6 7 7 7 8 8 10 11 13 16 19 22 25 28 30 31 31 30 28 26 25 23 21 20 19 19 19 19 20 21 21 20 18 17 15 14 12 11 9 8 7 7 7 7 7 7 8 8 8 8
17 19 20 21 19 17 14 11 9 9 9 8 8 7 7 6 5 5 6 6 6 7 7 7 7 8 9 11 13 15 18 21 24 27 30 32 33 33 32 31 30 28 27 26 25 24 24 23 22 21 18 16 14 13 11 9 8 7 6 6 6 7 7 8 8 8 9 9 9
19 21 22 22 20 17 15 12 10 10 9 9 8 7 7 6 6 6 6 6 7 7 7 7 7 7 8 8 10 11 13 16 19 22 26 29 31 32 33 33 32 31 30 29 27 26 24 23 21 18 16 13 12 10 8 7 6 5 5 6 7 7 8 9 9 9 9 9 9
21 23 24 24 22 19 16 13 12 11 11 10 9 7 6 6 6 6 6 7 7 7 7 7 7 7 7 8 8 9 11 12 14 17 20 23 25 27 29 29 29 29 28 27 26 24 21 19 17 14 12 10 9 7 6 6 6 6 6 7 8 8 9 9 10 10 9 9 9
23 25 26 25 23 20 17 15 14 13 12 10 8 7 6 6 6 6 7 7 7 8 8 8 8 8 8 8 8 9 10 11 12 13 15 18 20 22 23 24 24 24 24 22 20 18 16 14 12 10 9 7 6 6 6 6 6 7 8 8 9 9 9 10 10 10 10 10 10
25 27 27 26 23 21 18 16 16 14 12 10 8 7 6 5 6 7 7 8 8 8 8 9 9 9 9 9 9 10 10 11 11 12 13 14 15 17 18 19 19 19 18 16 14 12 11 9 8 7 7 6 6 6 6 7 8 8 9 9 9 9 9 9 9 9 9 9 10
27 28 28 27 24 21 19 18 16 14 12 9 8 7 6 6 7 8 8 8 8 8 9 10 10 10 10 11 11 11 11 11 12 12 12 13 13 14 14 14 14 14 12 11 9 8 7 7 6 6 6 6 7 7 8 8 8 9 9 9 8 8 8 7 7 7 7 8 9
27 28 27 26 24 21 20 18 17 14 11 9 8 7 7 8 8 9 9 9 9 10 10 10 10 11 12 12 12 12 12 12 12 12 11 12 12 12 12 11 11 10 9 8 7 6 6 6 6 7 7 8 8 8 8 8 8 8 7 7 7 6 5 5 5 5 6 6 7
26 27 26 25 23 21 20 19 16 13 11 9 8 8 8 9 9 10 10 10 10 11 11 10 11 12 12 12 12 12 12 12 12 11 11 11 11 10 10 10 9 9 8 8 7 7 6 7 7 7 8 8 8 8 8 7 7 6 5 5 4 4 3 3 3 3 4 4 5
25 25 25 24 23 21 20 18 15 12 10 9 9 9 9 9 10 10 11 11 11 11 11 11 12 12 12 12 12 12 12 11 11 11 10 10 9 9 9 9 9 8 8 8 7 7 7 7 7 7 7 8 8 8 7 6 5 4 3 3 3 2 2 2 2 2 2 3 3
24 24 23 23 22 21 19 16 14 11 10 9 9 9 9 10 10 10 10 10 10 10 11 11 11 11 11 11 11 11 10 10 10 9 9 9 8 8 8 8 8 8 8 7 7 7 7 6 6 6 6 6 6 6 6 5 4 3 2 2 2 2 2 2 2 2 2 2 3
22 22 22 22 21 20 17 15 12 10 9 9 9 9 9 10 10 10 10 10 10 10 10 10 10 10 10 9 9 9 9 8 8 7 7 7 7 6 6 7 7 7 7 7 7 6 6 5 5 5 5 4 5 5 5 5 3 2 2 2 2 2 2 2 2 2 2 2 3
21 21 21 20 19 17 15 12 11 10 9 9 9 9 9 9 9 9 9 9 8 8 8 8 8 8 8 8 7 7 7 6 6 6 5 5 5 5 5 6 6 6 6 6 6 5 5 4 4 4 4 3 4 4 5 5 4 3 2 2 2 3 3 3 3 3 3 3 3
19 19 19 18 16 14 12 10 10 9 9 9 9 9 9 9 8 8 8 7 7 7 7 7 7 6 6 6 6 5 5 5 4 4 4 4 4 5 5 5 5 5 5 5 5 5 4 4 3 3 3 3 3 4 5 5 4 4 3 3 3 3 3 3 3 3 3 3 3
18 17 16 15 13 12 10 9 9 9 9 9 9 8 8 8 7 7 7 6 6 6 6 6 5 5 5 5 5 5 4 4 4 4 4 4 4 4 4 4 4 4 4 5 5 4 4 3 3 3 3 3 3 4 5 5 5 4 4 3 3 3 3 3 3 3 4 4 4
16 15 14 12 11 9 9 8 9 9 9 9 8 7 7 6 6 6 6 6 6 6 5 5 5 5 4 4 4 4 4 4 3 3 3 3 4 4 3 3 3 3 4 4 4 4 4 3 3 3 3 3 3 4 4 4 5 5 4 4 3 3 3 3 3 3 4 5 4
14 14 12 11 9 8 7 8 9 9 9 8 7 7 6 5 5 5 5 5 5 5 5 5 5 4 4 4 4 3 3 3 3 3 2 2 3 3 3 3 3 3 3 4 4 4 4 3 3 3 3 3 3 3 4 4 4 5 5 4 4 3 3 2 3 4 5 5 5
13 12 11 10 9 7 7 7 8 9 9 8 7 7 6 5 5 5 5 4 4 4 4 4 4 4 3 3 3 3 3 3 3 3 2 2 2 2 2 2 2 2 3 3 4 4 4 3 3 3 3 4 3 3 3 3 4 4 4 4 3 3 3 3 3 4 5 6 5
11 11 10 10 9 8 7 7 7 8 8 8 8 7 6 5 5 4 4 4 4 4 4 4 3 3 3 3 3 3 3 3 3 3 3 2 2 2 2 2 2 2 3 3 4 4 4 3 3 3 3 4 4 3 3 4 4 4 4 4 3 3 3 3 4 4 5 6 6
10 10 9 9 9 8 8 7 7 7 8 8 8 7 6 5 5 4 4 3 3 3 3 3 3 3 3 3 3 3 3 3 3 3 3 2 2 2 2 2 2 2 2 3 3 4 4 3 3 3 3 3 3 3 4 4 4 4 4 4 4 3 3 3 4 5 6 6 6
Height
5702 5700 5698 5697 5695 5693 5691 5689 5687 5685 5683 5681 5679 5677 5675 5674 5672 5670 5668 5666 5664 5661 5660 5658 5656 5654 5652 5651 5649 5647 5645 5643 5641 5638 5636 5634 5632 5631 5629 5628 5627 5625 5624 5622 5621 5619 5618 5616 5615 5613 5612 5611 5609 5608 5606 5606 5604 5603 5601 5600 5598 5596 5595 5593 5591 5590 5588 5586 5584
5698 5696 5694 5693 5691 5689 5687 5685 5683 5681 5679 5677 5675 5673 5671 5669 5667 5665 5663 5661 5659 5657 5655 5653 5651 5650 5648 5646 5645 5643 5641 5638 5636 5634 5631 5629 5627 5626 5624 5623 5622 5621 5619 5618 5616 5614 5613 5612 5610 5609 5607 5606 5605 5604 5602 5601 5600 5598 5596 5595 5594 5592 5590 5589 5587 5585 5583 5581 5579
5694 5692 5690 5688 5686 5685 5683 5681 5679 5677 5675 5672 5670 5668 5666 5665 5663 5661 5659 5657 5655 5652 5651 5649 5646 5645 5643 5641 5640 5638 5636 5634 5632 5629 5627 5624 5622 5621 5620 5618 5617 5616 5615 5613 5611 5610 5608 5607 5606 5605 5603 5602 5601 5600 5598 5597 5596 5594 5592 5590 5589 5587 5586 5584 5582 5581 5578 5576 5574
5690 5688 5686 5684 5682 5680 5678 5676 5674 5672 5670 5668 5666 5664 5662 5660 5658 5656 5654 5652 5650 5648 5646 5644 5642 5640 5639 5637 5635 5633 5631 5629 5627 5625 5622 5620 5618 5616 5615 5614 5613 5611 5610 5609 5607 5605 5604 5602 5601 5600 5599 5598 5597 5596 5594 5592 5591 5589 5587 5586 5584 5583 5581 5580 5578 5576 5574 5572 5570
5686 5684 5682 5680 5678 5676 5674 5672 5670 5668 5666 5663 5661 5659 5657 5655 5653 5651 5650 5648 5646 5643 5641 5639 5638 5636 5634 5632 5631 5629 5627 5625 5623 5621 5618 5616 5613 5611 5610 5609 5608 5607 5606 5604 5602 5601 5599 5598 5597 5596 5595 5594 5593 5591 5590 5588 5586 5585 5583 5581 5580 5579 5577 5575 5573 5571 5569 5567 5565
5681 5679 5677 5675 5673 5671 5669 5667 5665 5663 5661 5659 5657 5655 5652 5650 5648 5646 5645 5643 5641 5638 5636 5635 5633 5631 5630 5628 5626 5624 5622 5620 5618 5616 5614 5611 5609 5607 5605 5604 5603 5602 5601 5599 5598 5596 5595 5594 5593 5592 5591 5590 5589 5587 5586 5584 5582 5581 5579 5577 5576 5574 5572 5570 5568 5566 5565 5562 5560
5677 5675 5673 5671 5669 5666 5664 5662 5660 5658 5656 5654 5652 5650 5647 5645 5643 5641 5639 5637 5635 5633 5631 5629 5628 5626 5625 5623 5621 5619 5617 5616 5614 5612 5610 5607 5605 5602 5601 5599 5598 5597 5596 5595 5593 5592 5591 5590 5588 5587 5587 5586 5584 5583 5581 5580 5578 5576 5575 5573 5571 5570 5568 5566 5564 5562 5560 5558 5556
5672 5670 5668 5666 5664 5661 5659 5657 5655 5653 5651 5649 5647 5645 5642 5640 5638 5636 5634 5632 5630 5628 5626 5624 5622 5621 5619 5618 5616 5615 5613 5611 5609 5607 5606 5603 5601 5599 5597 5595 5594 5593 5591 5591 5589 5588 5586 5585 5584 5583 5582 5581 5580 5579 5577 5575 5574 5572 5570 5568 5566 5565 5563 5561 5559 5557 5555 5553 5551
5667 5665 5663 5661 5659 5656 5654 5652 5650 5648 5646 5643 5641 5640 5637 5635 5633 5631 5629 5627 5625 5623 5621 5619 5617 5615 5613 5612 5611 5609 5608 5606 5605 5603 5601 5599 5597 5595 5592 5591 5590 5588 5587 5586 5585 5583 5582 5581 5580 5579 5578 5577 5576 5574 5573 5571 5569 5567 5566 5564 5562 5560 5558 5556 5554 5552 5550 5548 5546
5663 5661 5658 5656 5654 5652 5650 5647 5645 5643 5641 5639 5636 5635 5632 5630 5628 5626 5624 5621 5619 5617 5615 5613 5611 5609 5608 5606 5605 5604 5602 5601 5600 5598 5597 5595 5593 5591 5588 5586 5585 5584 5582 5581 5580 5579 5578 5577 5576 5575 5574 5573 5571 5570 5568 5567 5565 5563 5561 5559 5557 5556 5554 5552 5550 5548 5546 5543 5541
5658 5656 5654 5652 5649 5647 5645 5643 5640 5638 5636 5634 5632 5630 5627 5625 5623 5621 5619 5616 5614 5612 5610 5608 5606 5604 5602 5601 5599 5598 5597 5596 5595 5593 5592 5591 5589 5587 5585 5582 5581 5580 5578 5577 5576 5575 5574 5573 5572 5571 5569 5568 5567 5566 5564 5562 5561 5559 5556 5555 5553 5551 5549 5547 5546 5543 5541 5538 5536
5653 5651 5649 5647 5645 5642 5640 5638 5636 5634 5631 5629 5627 5625 5623 5620 5618 5616 5614 5611 5609 5607 5605 5602 5600 5598 5596 5595 5593 5592 5591 5590 5589 5588 5587 5586 5585 5583 5581 5579 5577 5576 5574 5573 5572 5571 5570 5569 5568 5566 5565 5564 5563 5561 5560 5558 5556 5554 5552 5550 5549 5547 5545 5543 5541 5539 5536 5534 5531
5648 5646 5644 5642 5640 5638 5636 5633 5631 5629 5627 5625 5622 5620 5618 5616 5614 5611 5609 5607 5605 5602 5600 5598 5596 5593 5591 5590 5588 5587 5586 5585 5584 5583 5582 5581 5580 5579 5577 5575 5574 5572 5570 5569 5568 5567 5566 5565 5564 5562 5561 5560 5559 5557 5556 5554 5552 5550 5548 5546 5544 5543 5541 5539 5537 5534 5532 5530 5528
5643 5641 5639 5637 5635 5633 5631 5629 5626 5625 5622 5620 5618 5616 5614 5611 5609 5607 5605 5602 5600 5598 5596 5593 5591 5589 5587 5585 5583 5581 5580 5579 5578 5578 5577 5576 5576 5575 5573 5571 5570 5568 5566 5565 5564 5563 5562 5561 5560 5559 5557 5556 5555 5553 5551 5550 5548 5546 5544 5542 5540 5539 5537 5535 5532 5530 5528 5526 5524
5638 5636 5634 5632 5630 5628 5626 5624 5622 5620 5618 5616 5614 5611 5609 5607 5605 5603 5601 5598 5596 5594 5591 5589 5587 5585 5583 5581 5578 5576 5575 5574 5573 5572 5572 5571 5571 5570 5569 5567 5566 5564 5562 5561 5560 5559 5558 5557 5556 5555 5553 5552 5551 5549 5547 5546 5544 5542 5540 5538 5536 5534 5532 5530 5528 5526 5524 5521 5519
5633 5631 5629 5627 5625 5623 5621 5620 5618 5616 5614 5612 5610 5607 5605 5603 5601 5599 5596 5594 5592 5590 5588 5586 5583 5581 5579 5576 5574 5572 5570 5569 5568 5567 5567 5566 5566 5565 5564 5563 5561 5560 5559 5557 5556 5555 5554 5553 5552 5551 5549 5548 5546 5545 5543 5541 5540 5538 5536 5534 5532 5530 5528 5526 5524 5521 5519 5517 5515
5629 5627 5625 5622 5621 5619 5617 5616 5614 5612 5610 5608 5606 5603 5601 5599 5597 5595 5593 5591 5588 5586 5584 5582 5580 5577 5575 5572 5570 5568 5566 5565 5563 5563 5562 5561 5561 5560 5559 5558 5557 5556 5555 5553 5552 5551 5551 5549 5548 5547 5546 5544 5542 5541 5539 5537 5536 5534 5532 5530 5528 5526 5524 5521 5520 5517 5515 5513 5511
5624 5622 5620 5618 5616 5614 5613 5611 5609 5608 5606 5604 5602 5600 5597 5596 5593 5591 5589 5587 5585 5583 5580 5578 5576 5573 5571 5568 5566 5564 5562 5560 5559 5558 5557 5557 5556 5556 5555 5554 5553 5552 5551 5550 5549 5548 5546 5546 5544 5543 5541 5540 5538 5536 5535 5533 5531 5530 5528 5526 5524 5521 5520 5517 5515 5513 5511 5509 5506
5619 5617 5616 5614 5612 5610 5608 5607 5605 5603 5602 5600 5598 5596 5594 5591 5590 5587 5585 5583 5581 5579 5577 5575 5572 5570 5567 5565 5562 5560 5558 5556 5555 5554 5553 5552 5551 5551 5550 5549 5548 5547 5546 5546 5545 5544 5542 5541 5540 5539 5537 5536 5534 5532 5531 5529 5527 5526 5524 5522 5520 5517 5516 5513 5511 5509 5507 5505 5503
5615 5613 5611 5609 5607 5606 5604 5603 5601 5599 5597 5596 5594 5592 5590 5588 5586 5584 5582 5580 5578 5576 5574 5571 5569 5566 5564 5561 5559 5557 5555 5553 5551 5550 5548 5547 5547 5546 5545 5545 5544 5543 5542 5541 5540 5539 5538 5537 5536 5534 5533 5531 5530 5528 5526 5525 5523 5521 5520 5518 5516 5514 5512 5510 5507 5506 5503 5501 5499
5611 5609 5607 5605 5603 5602 5600 5599 5597 5595 5593 5592 5590 5588 5586 5584 5582 5580 5578 5576 5574 5572 5570 5568 5566 5563 5561 5558 5556 5553 5551 5549 5547 5546 5544 5543 5542 5541 5540 5540 5539 5538 5537 5536 5536 5534 5533 5532 5531 5530 5528 5527 5526 5524 5523 5521 5520 5518 5516 5514 5512 5510 5508 5506 5504 5502 5500 5498 5496
5607 5605 5603 5601 5599 5597 5596 5595 5593 5591 5590 5588 5586 5584 5582 5581 5579 5577 5575 5573 5571 5569 5566 5565 5562 5560 5557 5555 5552 5550 5548 5546 5544 5542 5540 5539 5537 5536 5536 5535 5534 5533 5532 5532 5531 5530 5528 5527 5526 5525 5524 5523 5521 5520 5519 5517 5516 5514 5512 5511 5509 5507 5505 5503 5501 5499 5497 5495 5492
5602 5601 5599 5597 5595 5593 5592 5590 5589 5587 5586 5584 5582 5581 5579 5577 5575 5573 5571 5570 5567 5566 5563 5561 5559 5557 5554 5552 5550 5547 5545 5543 5541 5538 5536 5535 5533 5532 5531 5530 5529 5529 5528 5527 5526 5525 5524 5523 5522 5521 5520 5519 5518 5517 5515 5514 5512 5511 5509 5507 5506 5504 5502 5500 5498 5496 5493 5491 5489
5598 5596 5594 5592 5591 5589 5588 5586 5585 5584 5582 5581 5579 5577 5575 5574 5571 5570 5568 5566 5564 5562 5560 5558 5556 5554 5551 5549 5546 5544 5542 5540 5538 5536 5534 5532 5530 5529 5527 5526 5526 5525 5524 5523 5522 5521 5520 5519 5518 5517 5516 5516 5515 5513 5512 5511 5509 5507 5506 5504 5502 5501 5499 5497 5495 5492 5490 5488 5485
5594 5592 5590 5588 5586 5585 5584 5582 5581 5580 5579 5577 5576 5574 5572 5570 5568 5566 5565 5563 5561 5559 5557 5555 5553 5551 5548 5546 5544 5541 5539 5537 5535 5533 5531 5529 5527 5526 5525 5523 5522 5521 5520 5519 5519 5518 5517 5516 5515 5514 5513 5512 5511 5510 5509 5507 5506 5504 5502 5501 5499 5497 5496 5494 5491 5489 5487 5484 5482
5590 5587 5586 5584 5583 5581 5580 5579 5577 5576 5575 5574 5572 5570 5569 5567 5565 5563 5561 5560 5558 5556 5554 5552 5550 5548 5546 5543 5541 5539 5537 5535 5533 5531 5529 5527 5525 5524 5522 5521 5520 5519 5517 5517 5516 5515 5514 5513 5512 5511 5510 5509 5508 5507 5506 5504 5502 5501 5499 5498 5496 5494 5492 5491 5488 5486 5483 5481 5478
5585 5583 5582 5580 5579 5577 5576 5575 5574 5573 5571 5570 5569 5567 5565 5564 5562 5560 5558 5556 5555 5553 5551 5549 5547 5545 5543 5541 5539 5536 5534 5532 5530 5528 5526 5525 5523 5522 5520 5519 5518 5516 5515 5514 5513 5512 5511 5511 5509 5508 5507 5506 5505 5504 5502 5501 5499 5498 5496 5495 5493 5491 5489 5487 5485 5482 5480 5477 5475
5581 5579 5578 5576 5575 5574 5573 5571 5571 5569 5568 5567 5565 5564 5562 5561 5559 5557 5555 5553 5551 5550 5548 5546 5544 5542 5540 5538 5536 5534 5532 5530 5528 5526 5524 5523 5521 5520 5518 5517 5516 5515 5513 5512 5511 5510 5509 5507 5506 5506 5504 5503 5502 5501 5499 5498 5496 5495 5493 5491 5490 5488 5486 5484 5481 5479 5476 5474 5471
5577 5576 5574 5573 5571 5570 5569 5568 5567 5566 5565 5563 5562 5561 5559 5557 5556 5554 5552 5551 5549 5547 5545 5543 5541 5539 5537 5535 5533 5531 5529 5527 5526 5524 5522 5520 5519 5517 5516 5515 5513 5512 5511 5510 5509 5507 5506 5505 5504 5503 5501 5500 5499 5498 5496 5495 5493 5491 5490 5488 5486 5484 5482 5480 5477 5475 5473 5470 5468
5574 5572 5571 5569 5568 5567 5566 5565 5564 5563 5561 5560 5559 5557 5556 5554 5553 5551 5549 5548 5546 5544 5542 5540 5538 5536 5535 5533 5531 5529 5527 5525 5523 5521 5520 5518 5516 5515 5514 5512 5511 5510 5509 5507 5506 5505 5503 5502 5501 5500 5499 5497 5496 5495 5493 5491 5490 5488 5487 5485 5483 5481 5478 5476 5474 5471 5469 5466 5464
5571 5569 5568 5566 5565 5564 5563 5561 5561 5560 5558 5557 5556 5554 5553 5551 5550 5548 5546 5545 5543 5541 5539 5537 5536 5534 5532 5530 5528 5526 5525 5523 5521 5519 5517 5516 5514 5513 5511 5510 5509 5507 5506 5505 5503 5502 5501 5499 5498 5497 5496 5495 5493 5491 5490 5488 5486 5485 5483 5481 5479 5477 5475 5472 5470 5468 5466 5463 5461
5568 5566 5565 5563 5562 5561 5560 5559 5558 5556 5555 5554 5553 5551 5550 5548 5547 5545 5544 5542 5540 5538 5536 5535 5533 5531 5530 5528 5526 5524 5522 5520 5518 5516 5515 5513 5512 5511 5509 5507 5506 5505 5503 5502 5501 5499 5498 5496 5495 5494 5493 5491 5490 5488 5487 5485 5483 5481 5480 5478 5476 5474 5471 5469 5466 5464 5462 5459 5457
5565 5564 5562 5561 5559 5558 5557 5556 5555 5554 5552 5551 5550 5548 5546 5545 5544 5542 5541 5539 5537 5536 5534 5532 5531 5529 5527 5525 5523 5521 5520 5518 5516 5514 5513 5511 5509 5508 5506 5505 5503 5502 5501 5499 5498 5496 5495 5494 5492 5491 5489 5488 5486 5485 5484 5482 5480 5478 5476 5474 5472 5470 5467 5465 5463 5461 5458 5456 5453
5562 5561 5559 5558 5556 5555 5554 5553 5552 5551 5549 5548 5546 5545 5543 5542 5541 5539 5538 5536 5535 5533 5531 5529 5528 5526 5524 5522 5521 5519 5517 5516 5514 5512 5510 5508 5507 5506 5504 5502 5501 5499 5498 5496 5495 5494 5492 5491 5489 5488 5486 5485 5483 5481 5481 5479 5476 5474 5472 5471 5468 5466 5464 5461 5459 5457 5455 5452 5450
5560 5558 5557 5555 5554 5553 5551 5550 5549 5548 5546 5545 5543 5542 5540 5539 5537 5536 5535 5533 5531 5530 5528 5526 5525 5523 5521 5520 5518 5516 5515 5513 5511 5510 5508 5506 5504 5503 5501 5500 5498 5496 5495 5494 5492 5491 5489 5487 5486 5484 5483 5481 5479 5478 5477 5476 5473 5471 5469 5467 5465 5463 5460 5458 5456 5453 5451 5449 5446
5557 5555 5554 5552 5551 5550 5548 5547 5546 5545 5543 5541 5540 5538 5537 5536 5534 5533 5531 5530 5529 5527 5525 5524 5522 5520 5519 5517 5515 5513 5512 5510 5508 5507 5505 5503 5502 5500 5499 5497 5495 5494 5492 5491 5489 5487 5486 5484 5482 5481 5479 5477 5476 5475 5474 5472 5470 5468 5466 5463 5461 5459 5456 5454 5452 5450 5447 5445 5442
5554 5552 5551 5550 5548 5547 5546 5544 5543 5541 5540 5538 5537 5535 5534 5532 5531 5530 5528 5527 5526 5524 5522 5521 5519 5517 5516 5514 5512 5511 5509 5507 5506 5504 5502 5501 5499 5497 5496 5494 5492 5491 5489 5487 5486 5484 5483 5481 5479 5477 5476 5474 5472 5471 5470 5468 5467 5465 5462 5460 5457 5455 5453 5451 5448 5446 5444 5441 5439
5551 5549 5548 5546 5545 5544 5542 5541 5539 5538 5536 5535 5534 5532 5531 5529 5528 5526 5525 5524 5522 5521 5519 5518 5516 5514 5513 5511 5509 5508 5506 5504 5502 5501 5499 5498 5496 5495 5493 5491 5490 5488 5486 5484 5483 5481 5479 5477 5476 5474 5472 5471 5469 5467 5466 5465 5463 5461 5459 5456 5454 5451 5449 5446 5445 5442 5440 5438 5435
5547 5546 5544 5543 5542 5541 5539 5538 5536 5535 5533 5532 5530 5529 5527 5526 5525 5523 5522 5521 5519 5517 5516 5514 5513 5511 5510 5508 5506 5505 5503 5501 5499 5498 5496 5495 5493 5491 5490 5488 5486 5485 5483 5481 5479 5477 5476 5474 5472 5471 5469 5467 5465 5464 5462 5461 5459 5457 5456 5453 5450 5447 5445 5443 5441 5439 5436 5434 5431
5544 5542 5541 5539 5538 5537 5536 5534 5533 5531 5530 5528 5527 5526 5524 5523 5521 5520 5519 5517 5516 5514 5513 5511 5510 5508 5506 5505 5503 5501 5500 5498 5496 5495 5493 5491 5490 5488 5486 5485 5483 5481 5479 5477 5476 5474 5472 5470 5468 5467 5465 5463 5461 5460 5458 5456 5455 5453 5451 5449 5447 5444 5441 5439 5437 5435 5433 5430 5427
5540 5539 5537 5536 5535 5533 5532 5531 5529 5528 5526 5525 5523 5522 5521 5519 5518 5516 5515 5514 5512 5511 5509 5508 5506 5505 5503 5502 5500 5498 5496 5495 5493 5491 5490 5488 5486 5485 5483 5481 5480 5478 5476 5474 5472 5470 5468 5466 5465 5463 5461 5459 5457 5456 5454 5452 5451 5449 5447 5445 5443 5441 5438 5436 5434 5431 5429 5427 5424